Regional Weather Roundup
Issued by NWS Little Rock, AR

Home | Current Version | Previous Version | Graphics & Text | Print | Product List | Glossary On
Versions: 1 2 3 4 5 6 7 8 9 10 11 12 13 14 15 16 17 18 19 20 21 22 23 24 25 26 27 28 29 30 31 32 33 34 35 36 37 38 39 40 41 42 43 44 45 46 47 48 49 50
922
ASUS44 KLZK 241405
RWRLZK

WEATHER ROUNDUP FOR ARKANSAS
NATIONAL WEATHER SERVICE LITTLE ROCK AR
900 AM CDT SAT JUN 24 2017

NOTE: "FAIR" INDICATES FEW OR NO CLOUDS BELOW 12,000 FEET WITH NO
SIGNIFICANT WEATHER AND/OR OBSTRUCTIONS TO VISIBILITY.

ARZ001-003-010-029-241500-
NORTHWEST ARKANSAS

CITY           SKY/WX    TMP DP  RH WIND       PRES   REMARKS
FAYETTEVILLE   CLOUDY    68  58  70 E5        30.20R
FORT SMITH     CLOUDY    72  61  68 E3        30.16R
HARRISON       CLOUDY    69  59  70 VRB3      30.20R
BENTONVILLE    CLOUDY    70  55  60 E7        30.22R
ROGERS         CLOUDY    67  58  72 E5        30.22R
SILOAM SPGS    CLOUDY    66  57  72 CALM      30.20R
HIGHFILL       PTSUNNY   69  59  70 VRB3      30.21
SPRINGDALE     PTSUNNY   68  57  68 E5        30.22R
$$

ARZ004-005-016-241500-
NORTH CENTRAL ARKANSAS

CITY           SKY/WX    TMP DP  RH WIND       PRES   REMARKS
BATESVILLE     CLOUDY    66  63  88 W3        30.15R
FLIPPIN        CLOUDY    72  55  56 NE5       30.15R
MTN HOME       SUNNY     69  61  75 CALM      30.17R
$$

ARZ040-041-241500-
WEST CENTRAL ARKANSAS

CITY           SKY/WX    TMP DP  RH WIND       PRES   REMARKS
MENA           CLOUDY    72  70  94 E6        30.19R
MOUNT IDA      CLOUDY    71  67  87 CALM      30.15R
$$

ARZ009-017-025-026-028-241500-
NORTHEAST ARKANSAS

CITY           SKY/WX    TMP DP  RH WIND       PRES   REMARKS
JONESBORO      CLOUDY    73  63  70 N5        30.11R
WALNUT RIDGE   CLOUDY    72  59  64 N12       30.12R
BLYTHEVILLE    CLOUDY    73  63  70 NE8       30.10R
$$

ARZ022-023-033-042-044-241500-
CENTRAL ARKANSAS

CITY           SKY/WX    TMP DP  RH WIND       PRES   REMARKS
LITTLE ROCK    CLOUDY    70  64  81 N9        30.13R
N LITTLE ROCK    N/A     69  64  84 N6        30.13R
JACKSONVILLE   CLOUDY    70  64  82 N3        30.13R
CONWAY           N/A     70  64  83 N7        30.13S
SEARCY         PTSUNNY   71  63  75 N7        30.15R
HOT SPRINGS    CLOUDY    74  61  63 VRB5      30.14R
RUSSELLVILLE   CLOUDY    70  64  81 CALM      30.15R
CLINTON        FAIR      70  63  78 CALM      30.16R
$$

ARZ036-241500-
EAST ARKANSAS

CITY           SKY/WX    TMP DP  RH WIND       PRES   REMARKS
WEST MEMPHIS   PTSUNNY   72  66  81 N9        30.08R
$$

ARZ050-053-066-070-073-241500-
SOUTHWEST ARKANSAS

CITY           SKY/WX    TMP DP  RH WIND       PRES   REMARKS
CAMDEN         CLOUDY    75  68  78 N6        30.11R
TEXARKANA      CLOUDY    72  70  93 NE7       30.11R
EL DORADO      CLOUDY    74  70  87 N7        30.09R
DE QUEEN       CLOUDY    74  68  81 NE3       30.12R
$$

ARZ056-057-069-241500-
SOUTHEAST ARKANSAS

CITY           SKY/WX    TMP DP  RH WIND       PRES   REMARKS
PINE BLUFF     CLOUDY    72  64  76 N9        30.11R
STUTTGART      CLOUDY   N/A N/A N/A N13       30.11R
MONTICELLO     CLOUDY    73  68  84 VRB7      30.09R

$$






USA.gov is the U.S. government's official web portal to all federal, state and local government web resources and services.